contact:dominique.lefevre@mio.osupytheas.fr, maurice.libes@osupytheas.fr, didier.mallarino@osupytheas.fr
Project:EMSO http://www.emso-fr.org/EMSO-France
Depth: 2436.0 m
Title:EMSO Ligure Ouest : Data MII capteur CSTAR
DateTime,Latitude,Longitude,Instrument_Serial,Reference_Counts,Signal_Counts,Corrected_Signal_raw_counts,Calculated_Beam_c_inverse_meters,Internal_thermistor_counts
DateTime,Latitude,Longitude,Instrument_Serial,Reference_Counts,Signal_Counts,Corrected_Signal_raw_counts,Calculated_Beam_c_inverse_meters,Internal_thermistor_counts
2022-06-30T09:55:07,42.805,6.029,CST-1368DR,4688,5031,11436,01.246,552
2022-06-30T09:58:08,42.805,6.029,CST-1368DR,4689,5025,11419,01.252,551
2022-06-30T10:01:10,42.805,6.029,CST-1368DR,4689,5031,11433,01.247,551
2022-06-30T10:04:12,42.805,6.029,CST-1368DR,4689,5025,11420,01.252,551
2022-06-30T10:07:13,42.805,6.029,CST-1368DR,4689,5029,11429,01.249,551
2022-06-30T10:10:15,42.805,6.029,CST-1368DR,4689,5030,11431,01.248,551
2022-06-30T10:13:16,42.805,6.029,CST-1368DR,4689,5028,11426,01.250,551
2022-06-30T10:16:18,42.805,6.029,CST-1368DR,4689,5026,11423,01.251,551
2022-06-30T10:19:20,42.805,6.029,CST-1368DR,4689,5029,11430,01.248,551
2022-06-30T10:22:21,42.805,6.029,CST-1368DR,4689,5029,11428,01.249,551
2022-06-30T10:25:23,42.805,6.029,CST-1368DR,4689,5036,11445,01.243,551
2022-06-30T10:28:24,42.805,6.029,CST-1368DR,4689,5031,11433,01.247,551
2022-06-30T10:31:26,42.805,6.029,CST-1368DR,4689,5033,11439,01.245,551
2022-06-30T10:34:27,42.805,6.029,CST-1368DR,4688,5032,11438,01.245,551
2022-06-30T10:37:29,42.805,6.029,CST-1368DR,4688,5037,11450,01.241,551
2022-06-30T10:40:31,42.805,6.029,CST-1368DR,4688,5032,11438,01.245,551
2022-06-30T10:43:32,42.805,6.029,CST-1368DR,4688,5037,11449,01.242,551
2022-06-30T10:46:34,42.805,6.029,CST-1368DR,4688,5030,11432,01.248,551
2022-06-30T10:49:35,42.805,6.029,CST-1368DR,4688,5034,11441,01.244,551
2022-06-30T10:52:37,42.805,6.029,CST-1368DR,4688,5030,11434,01.247,551
2022-06-30T10:55:38,42.805,6.029,CST-1368DR,4688,5033,11440,01.245,551
2022-06-30T10:58:40,42.805,6.029,CST-1368DR,4688,5034,11443,01.244,551
2022-06-30T11:01:42,42.805,6.029,CST-1368DR,4688,5033,11440,01.245,551
2022-06-30T11:04:43,42.805,6.029,CST-1368DR,4688,5031,11436,01.246,551
2022-06-30T11:07:45,42.805,6.029,CST-1368DR,4688,5044,11465,01.236,551
2022-06-30T11:10:46,42.805,6.029,CST-1368DR,4687,5028,11431,01.248,551
2022-06-30T11:13:48,42.805,6.029,CST-1368DR,4687,5026,11426,01.250,551
2022-06-30T11:16:50,42.805,6.029,CST-1368DR,4687,5026,11426,01.250,551
2022-06-30T11:19:51,42.805,6.029,CST-1368DR,4687,5024,11423,01.251,551
2022-06-30T11:22:53,42.805,6.029,CST-1368DR,4687,5022,11418,01.252,551
2022-06-30T11:25:54,42.805,6.029,CST-1368DR,4687,5027,11428,01.249,551
2022-06-30T11:28:56,42.805,6.029,CST-1368DR,4687,5027,11428,01.249,551
2022-06-30T11:31:57,42.805,6.029,CST-1368DR,4687,5024,11421,01.251,551
2022-06-30T11:34:59,42.805,6.029,CST-1368DR,4687,5020,11413,01.254,551
2022-06-30T11:38:01,42.805,6.029,CST-1368DR,4687,5021,11414,01.254,551
2022-06-30T11:41:02,42.805,6.029,CST-1368DR,4687,5023,11419,01.252,551
2022-06-30T11:44:04,42.805,6.029,CST-1368DR,4687,5035,11447,01.242,551
2022-06-30T11:47:05,42.805,6.029,CST-1368DR,4686,5026,11430,01.248,551
2022-06-30T11:50:07,42.805,6.029,CST-1368DR,4686,5019,11412,01.255,551
2022-06-30T11:53:08,42.805,6.029,CST-1368DR,4686,5014,11401,01.258,551
2022-06-30T11:56:10,42.805,6.029,CST-1368DR,4686,5018,11411,01.255,551
2022-06-30T11:59:12,42.805,6.029,CST-1368DR,4686,5018,11410,01.255,551
2022-06-30T12:02:13,42.805,6.029,CST-1368DR,4686,5017,11409,01.256,551
2022-06-30T12:05:15,42.805,6.029,CST-1368DR,4686,5008,11389,01.263,551
2022-06-30T12:08:16,42.805,6.029,CST-1368DR,4686,5013,11400,01.259,551
2022-06-30T12:11:18,42.805,6.029,CST-1368DR,4686,5017,11409,01.256,551
2022-06-30T12:14:20,42.805,6.029,CST-1368DR,4686,5016,11407,01.256,551
2022-06-30T12:17:21,42.805,6.029,CST-1368DR,4686,5016,11406,01.257,551
2022-06-30T12:20:23,42.805,6.029,CST-1368DR,4686,5012,11396,01.260,551
2022-06-30T12:23:24,42.805,6.029,CST-1368DR,4686,5018,11410,01.255,551
2022-06-30T12:26:26,42.805,6.029,CST-1368DR,4685,5019,11415,01.253,551
2022-06-30T12:29:27,42.805,6.029,CST-1368DR,4686,5014,11401,01.258,551
2022-06-30T12:32:29,42.805,6.029,CST-1368DR,4685,5014,11403,01.258,551
2022-06-30T12:35:31,42.805,6.029,CST-1368DR,4685,5017,11412,01.255,551
2022-06-30T12:38:32,42.805,6.029,CST-1368DR,4685,5017,11411,01.255,551
2022-06-30T12:41:34,42.805,6.029,CST-1368DR,4685,5010,11396,01.260,551
2022-06-30T12:44:35,42.805,6.029,CST-1368DR,4685,5019,11414,01.254,551
2022-06-30T12:47:37,42.805,6.029,CST-1368DR,4685,5017,11412,01.255,551
2022-06-30T12:50:38,42.805,6.029,CST-1368DR,4685,5017,11410,01.255,551
2022-06-30T12:53:40,42.805,6.029,CST-1368DR,4685,5017,11412,01.255,551
2022-06-30T12:56:42,42.805,6.029,CST-1368DR,4685,5013,11402,01.258,551
2022-06-30T12:59:43,42.805,6.029,CST-1368DR,4685,5020,11418,01.252,551
2022-06-30T13:02:45,42.805,6.029,CST-1368DR,4685,5013,11402,01.258,551
2022-06-30T13:05:46,42.805,6.029,CST-1368DR,4685,5011,11397,01.260,551
2022-06-30T13:08:48,42.805,6.029,CST-1368DR,4685,5017,11410,01.255,551
2022-06-30T13:11:50,42.805,6.029,CST-1368DR,4685,5016,11409,01.256,551
2022-06-30T13:14:51,42.805,6.029,CST-1368DR,4685,5018,11414,01.254,551
2022-06-30T13:17:53,42.805,6.029,CST-1368DR,4684,5017,11413,01.254,551
2022-06-30T13:20:54,42.805,6.029,CST-1368DR,4684,5017,11412,01.255,551
2022-06-30T13:23:56,42.805,6.029,CST-1368DR,4684,5018,11414,01.254,551
2022-06-30T13:26:57,42.805,6.029,CST-1368DR,4684,5013,11404,01.257,551
2022-06-30T13:29:59,42.805,6.029,CST-1368DR,4684,5010,11397,01.260,551
2022-06-30T13:33:01,42.805,6.029,CST-1368DR,4684,5012,11401,01.258,551
2022-06-30T13:36:02,42.805,6.029,CST-1368DR,4684,5011,11399,01.259,551
2022-06-30T13:39:04,42.805,6.029,CST-1368DR,4684,5010,11398,01.259,551
2022-06-30T13:42:05,42.805,6.029,CST-1368DR,4684,5009,11395,01.260,551
2022-06-30T13:45:07,42.805,6.029,CST-1368DR,4684,5014,11406,01.257,551
2022-06-30T13:48:08,42.805,6.029,CST-1368DR,4684,5012,11401,01.258,551
2022-06-30T13:51:10,42.805,6.029,CST-1368DR,4684,5013,11404,01.257,551
2022-06-30T13:54:12,42.805,6.029,CST-1368DR,4684,5014,11406,01.257,551
2022-06-30T13:57:13,42.805,6.029,CST-1368DR,4684,5015,11409,01.256,551
2022-06-30T14:00:15,42.805,6.029,CST-1368DR,4684,5008,11393,01.261,551
2022-06-30T14:03:16,42.805,6.029,CST-1368DR,4684,5012,11401,01.258,551
2022-06-30T14:06:18,42.805,6.029,CST-1368DR,4684,5010,11396,01.260,551
2022-06-30T14:09:20,42.805,6.029,CST-1368DR,4684,5014,11406,01.257,551
2022-06-30T14:12:21,42.805,6.029,CST-1368DR,4684,5020,11419,01.252,551
2022-06-30T14:15:23,42.805,6.029,CST-1368DR,4684,5017,11413,01.254,551
2022-06-30T14:18:24,42.805,6.029,CST-1368DR,4684,5013,11404,01.257,551
2022-06-30T14:21:26,42.805,6.029,CST-1368DR,4684,5018,11414,01.254,551
2022-06-30T14:24:27,42.805,6.029,CST-1368DR,4684,5019,11418,01.252,551
2022-06-30T14:27:29,42.805,6.029,CST-1368DR,4684,5017,11413,01.254,551
2022-06-30T14:30:31,42.805,6.029,CST-1368DR,4684,5018,11415,01.253,551
2022-06-30T14:33:32,42.805,6.029,CST-1368DR,4684,5019,11418,01.252,551
2022-06-30T14:36:34,42.805,6.029,CST-1368DR,4683,5019,11419,01.252,551
2022-06-30T14:39:35,42.805,6.029,CST-1368DR,4683,5016,11413,01.254,551
2022-06-30T14:42:37,42.805,6.029,CST-1368DR,4683,5016,11412,01.255,551
2022-06-30T14:45:38,42.805,6.029,CST-1368DR,4683,5019,11420,01.252,551
2022-06-30T14:48:40,42.805,6.029,CST-1368DR,4683,5016,11412,01.255,551
2022-06-30T14:51:42,42.805,6.029,CST-1368DR,4683,5017,11416,01.253,551
2022-06-30T14:54:43,42.805,6.029,CST-1368DR,4683,5017,11414,01.254,551
2022-06-30T14:57:45,42.805,6.029,CST-1368DR,4683,5015,11411,01.255,551
2022-06-30T15:00:46,42.805,6.029,CST-1368DR,4683,5017,11415,01.253,551
2022-06-30T15:03:48,42.805,6.029,CST-1368DR,4683,5017,11415,01.253,551
2022-06-30T15:06:50,42.805,6.029,CST-1368DR,4683,5016,11413,01.254,551
2022-06-30T15:09:51,42.805,6.029,CST-1368DR,4683,5015,11411,01.255,551
2022-06-30T15:12:53,42.805,6.029,CST-1368DR,4683,5038,11463,01.237,551
2022-06-30T15:15:54,42.805,6.029,CST-1368DR,4683,5021,11425,01.250,551
2022-06-30T15:18:56,42.805,6.029,CST-1368DR,4683,5020,11422,01.251,551
2022-06-30T15:21:57,42.805,6.029,CST-1368DR,4683,5019,11419,01.252,551
2022-06-30T15:24:59,42.805,6.029,CST-1368DR,4683,5014,11409,01.256,551
2022-06-30T15:28:01,42.805,6.029,CST-1368DR,4683,5017,11414,01.254,551
2022-06-30T15:31:02,42.805,6.029,CST-1368DR,4683,5016,11414,01.254,551
2022-06-30T15:34:04,42.805,6.029,CST-1368DR,4683,5034,11454,01.240,551
2022-06-30T15:37:05,42.805,6.029,CST-1368DR,4683,5014,11409,01.256,551
2022-06-30T15:40:07,42.805,6.029,CST-1368DR,4683,5016,11412,01.255,551
2022-06-30T15:43:09,42.805,6.029,CST-1368DR,4683,5015,11411,01.255,551
2022-06-30T15:46:10,42.805,6.029,CST-1368DR,4683,5012,11403,01.258,551
2022-06-30T15:49:12,42.805,6.029,CST-1368DR,4683,5017,11416,01.253,551
2022-06-30T15:52:13,42.805,6.029,CST-1368DR,4683,5008,11395,01.260,551
2022-06-30T15:55:15,42.805,6.029,CST-1368DR,4683,5013,11407,01.256,551
2022-06-30T15:58:16,42.805,6.029,CST-1368DR,4683,5013,11405,01.257,551
2022-06-30T16:01:18,42.805,6.029,CST-1368DR,4682,4997,11373,01.268,551
2022-06-30T16:04:20,42.805,6.029,CST-1368DR,4682,5003,11385,01.264,550
2022-06-30T16:07:21,42.805,6.029,CST-1368DR,4682,5008,11397,01.260,551
2022-06-30T16:10:23,42.805,6.029,CST-1368DR,4682,5008,11396,01.260,551
2022-06-30T16:13:24,42.805,6.029,CST-1368DR,4682,5003,11386,01.264,551
2022-06-30T16:16:26,42.805,6.029,CST-1368DR,4682,5010,11401,01.258,551
2022-06-30T16:19:27,42.805,6.029,CST-1368DR,4682,5006,11393,01.261,551
2022-06-30T16:22:29,42.805,6.029,CST-1368DR,4682,5010,11401,01.258,551
2022-06-30T16:25:31,42.805,6.029,CST-1368DR,4682,5010,11403,01.258,551
2022-06-30T16:28:32,42.805,6.029,CST-1368DR,4682,5012,11405,01.257,551
2022-06-30T16:31:34,42.805,6.029,CST-1368DR,4682,4994,11365,01.271,550
2022-06-30T16:34:35,42.805,6.029,CST-1368DR,4682,4986,11347,01.277,551
2022-06-30T16:37:37,42.805,6.029,CST-1368DR,4682,4997,11371,01.269,551
2022-06-30T16:40:39,42.805,6.029,CST-1368DR,4682,4999,11377,01.267,551
2022-06-30T16:43:40,42.805,6.029,CST-1368DR,4682,5010,11402,01.258,551
2022-06-30T16:46:42,42.805,6.029,CST-1368DR,4682,5010,11401,01.258,551
2022-06-30T16:49:43,42.805,6.029,CST-1368DR,4682,5010,11401,01.258,551
2022-06-30T16:52:45,42.805,6.029,CST-1368DR,4682,5016,11415,01.253,551
2022-06-30T16:55:46,42.805,6.029,CST-1368DR,4682,5017,11417,01.253,551
2022-06-30T16:58:48,42.805,6.029,CST-1368DR,4682,5022,11429,01.249,551
2022-06-30T17:01:50,42.805,6.029,CST-1368DR,4682,5010,11401,01.258,551
2022-06-30T17:04:51,42.805,6.029,CST-1368DR,4682,5022,11429,01.249,551
2022-06-30T17:07:53,42.805,6.029,CST-1368DR,4682,5010,11403,01.258,551
2022-06-30T17:10:54,42.805,6.029,CST-1368DR,4682,5019,11422,01.251,551
2022-06-30T17:13:56,42.805,6.029,CST-1368DR,4682,5023,11432,01.248,551
2022-06-30T17:16:57,42.805,6.029,CST-1368DR,4682,5018,11420,01.252,551
2022-06-30T17:19:59,42.805,6.029,CST-1368DR,4682,5024,11434,01.247,551
2022-06-30T17:23:01,42.805,6.029,CST-1368DR,4682,5012,11406,01.257,551
2022-06-30T17:26:02,42.805,6.029,CST-1368DR,4682,5011,11404,01.257,551
2022-06-30T17:29:04,42.805,6.029,CST-1368DR,4682,5010,11401,01.258,551
2022-06-30T17:32:05,42.805,6.029,CST-1368DR,4682,5008,11398,01.259,551
2022-06-30T17:35:07,42.805,6.029,CST-1368DR,4682,5008,11398,01.259,551
2022-06-30T17:38:09,42.805,6.029,CST-1368DR,4682,5001,11382,01.265,551
2022-06-30T17:41:10,42.805,6.029,CST-1368DR,4682,5003,11386,01.264,551
2022-06-30T17:44:12,42.805,6.029,CST-1368DR,4682,5002,11383,01.265,551
2022-06-30T17:47:13,42.805,6.029,CST-1368DR,4682,5004,11389,01.263,551
2022-06-30T17:50:15,42.805,6.029,CST-1368DR,4682,5012,11405,01.257,551
2022-06-30T17:53:16,42.805,6.029,CST-1368DR,4681,5006,11395,01.260,551
2022-06-30T17:56:18,42.805,6.029,CST-1368DR,4682,5010,11401,01.258,551
2022-06-30T17:59:20,42.805,6.029,CST-1368DR,4682,5010,11403,01.258,551
2022-06-30T18:02:21,42.805,6.029,CST-1368DR,4682,5010,11401,01.258,551
2022-06-30T18:05:23,42.805,6.029,CST-1368DR,4682,5014,11411,01.255,551
2022-06-30T18:08:24,42.805,6.029,CST-1368DR,4682,5012,11407,01.256,551
2022-06-30T18:11:26,42.805,6.029,CST-1368DR,4682,5008,11397,01.260,551
2022-06-30T18:14:27,42.805,6.029,CST-1368DR,4682,5011,11403,01.258,551
2022-06-30T18:17:29,42.805,6.029,CST-1368DR,4681,5008,11400,01.259,551
2022-06-30T18:20:31,42.805,6.029,CST-1368DR,4682,5011,11404,01.257,551
2022-06-30T18:23:32,42.805,6.029,CST-1368DR,4682,5009,11399,01.259,551
2022-06-30T18:26:34,42.805,6.029,CST-1368DR,4682,5009,11399,01.259,551
2022-06-30T18:29:35,42.805,6.029,CST-1368DR,4681,5010,11403,01.258,551
2022-06-30T18:32:37,42.805,6.029,CST-1368DR,4681,5010,11404,01.257,551
2022-06-30T18:35:39,42.805,6.029,CST-1368DR,4681,5008,11399,01.259,551
2022-06-30T18:38:40,42.805,6.029,CST-1368DR,4681,5013,11411,01.255,551
2022-06-30T18:41:42,42.805,6.029,CST-1368DR,4681,5011,11407,01.256,551
2022-06-30T18:44:43,42.805,6.029,CST-1368DR,4681,5007,11398,01.259,551
2022-06-30T18:47:45,42.805,6.029,CST-1368DR,4681,5003,11388,01.263,551
2022-06-30T18:50:46,42.805,6.029,CST-1368DR,4681,5007,11398,01.259,551
2022-06-30T18:53:48,42.805,6.029,CST-1368DR,4681,5007,11398,01.259,551
2022-06-30T18:56:50,42.805,6.029,CST-1368DR,4681,5009,11402,01.258,551
2022-06-30T18:59:51,42.805,6.029,CST-1368DR,4681,5010,11403,01.258,551
2022-06-30T19:02:53,42.805,6.029,CST-1368DR,4681,5003,11388,01.263,551
2022-06-30T19:05:54,42.805,6.029,CST-1368DR,4681,5007,11398,01.259,551
2022-06-30T19:08:56,42.805,6.029,CST-1368DR,4681,5007,11398,01.259,551
2022-06-30T19:11:57,42.805,6.029,CST-1368DR,4681,5006,11394,01.261,551
2022-06-30T19:14:59,42.805,6.029,CST-1368DR,4681,5003,11387,01.263,551
2022-06-30T19:18:01,42.805,6.029,CST-1368DR,4681,5001,11383,01.265,551
2022-06-30T19:21:02,42.805,6.029,CST-1368DR,4681,5004,11390,01.262,551
2022-06-30T19:24:04,42.805,6.029,CST-1368DR,4681,5006,11396,01.260,551
2022-06-30T19:27:05,42.805,6.029,CST-1368DR,4681,5007,11398,01.259,551
2022-06-30T19:30:07,42.805,6.029,CST-1368DR,4681,5004,11391,01.262,551
2022-06-30T19:33:09,42.805,6.029,CST-1368DR,4681,5000,11381,01.265,551
2022-06-30T19:36:10,42.805,6.029,CST-1368DR,4681,5005,11393,01.261,551
2022-06-30T19:39:12,42.805,6.029,CST-1368DR,4681,5002,11387,01.263,551
2022-06-30T19:42:13,42.805,6.029,CST-1368DR,4681,5004,11391,01.262,551
2022-06-30T19:45:15,42.805,6.029,CST-1368DR,4681,5006,11395,01.260,551
2022-06-30T19:48:16,42.805,6.029,CST-1368DR,4681,4996,11371,01.269,551
2022-06-30T19:51:18,42.805,6.029,CST-1368DR,4681,5000,11382,01.265,551
2022-06-30T19:54:20,42.805,6.029,CST-1368DR,4681,5002,11386,01.264,551
2022-06-30T19:57:21,42.805,6.029,CST-1368DR,4681,4998,11378,01.266,551
2022-06-30T20:00:23,42.805,6.029,CST-1368DR,4681,5000,11381,01.265,551
2022-06-30T20:03:24,42.805,6.029,CST-1368DR,4681,4993,11365,01.271,551
2022-06-30T20:06:26,42.805,6.029,CST-1368DR,4681,5000,11380,01.266,551
2022-06-30T20:09:27,42.805,6.029,CST-1368DR,4681,5000,11380,01.266,551
2022-06-30T20:12:29,42.805,6.029,CST-1368DR,4681,4998,11378,01.266,551
2022-06-30T20:15:31,42.805,6.029,CST-1368DR,4681,4999,11379,01.266,551
2022-06-30T20:18:32,42.805,6.029,CST-1368DR,4681,4997,11374,01.268,551
2022-06-30T20:21:34,42.805,6.029,CST-1368DR,4681,4999,11380,01.266,551
2022-06-30T20:24:35,42.805,6.029,CST-1368DR,4681,4995,11370,01.269,551
2022-06-30T20:27:37,42.805,6.029,CST-1368DR,4681,4995,11371,01.269,551
2022-06-30T20:30:39,42.805,6.029,CST-1368DR,4681,4987,11353,01.275,551
2022-06-30T20:33:40,42.805,6.029,CST-1368DR,4681,4991,11362,01.272,551
2022-06-30T20:36:42,42.805,6.029,CST-1368DR,4681,4999,11379,01.266,551
2022-06-30T20:39:43,42.805,6.029,CST-1368DR,4681,4996,11372,01.269,551
2022-06-30T20:42:45,42.805,6.029,CST-1368DR,4681,4999,11379,01.266,551
2022-06-30T20:45:46,42.805,6.029,CST-1368DR,4681,4991,11361,01.272,551
2022-06-30T20:48:48,42.805,6.029,CST-1368DR,4681,4997,11374,01.268,551
2022-06-30T20:51:50,42.805,6.029,CST-1368DR,4681,4997,11374,01.268,551
2022-06-30T20:54:51,42.805,6.029,CST-1368DR,4681,5008,11400,01.259,551
2022-06-30T20:57:53,42.805,6.029,CST-1368DR,4681,5007,11398,01.259,551
2022-06-30T21:00:54,42.805,6.029,CST-1368DR,4681,5007,11397,01.260,551
2022-06-30T21:03:56,42.805,6.029,CST-1368DR,4681,5010,11404,01.257,551
2022-06-30T21:06:57,42.805,6.029,CST-1368DR,4681,5014,11413,01.254,551
2022-06-30T21:09:59,42.805,6.029,CST-1368DR,4681,5014,11414,01.254,551
2022-06-30T21:13:01,42.805,6.029,CST-1368DR,4681,5012,11409,01.256,551
2022-06-30T21:16:02,42.805,6.029,CST-1368DR,4681,5049,11493,01.226,551
2022-06-30T21:19:04,42.805,6.029,CST-1368DR,4681,5020,11427,01.249,551
2022-06-30T21:22:05,42.805,6.029,CST-1368DR,4681,5017,11420,01.252,551
2022-06-30T21:25:07,42.805,6.029,CST-1368DR,4681,5016,11417,01.253,551
2022-06-30T21:28:09,42.805,6.029,CST-1368DR,4681,5015,11416,01.253,551
2022-06-30T21:31:10,42.805,6.029,CST-1368DR,4681,5014,11413,01.254,551
2022-06-30T21:34:12,42.805,6.029,CST-1368DR,4681,5018,11421,01.251,551
2022-06-30T21:37:13,42.805,6.029,CST-1368DR,4681,5017,11419,01.252,551
2022-06-30T21:40:15,42.805,6.029,CST-1368DR,4681,5016,11419,01.252,551
2022-06-30T21:43:16,42.805,6.029,CST-1368DR,4681,5014,11413,01.254,551
2022-06-30T21:46:18,42.805,6.029,CST-1368DR,4681,5017,11420,01.252,551
2022-06-30T21:49:20,42.805,6.029,CST-1368DR,4681,5016,11419,01.252,551
2022-06-30T21:52:21,42.805,6.029,CST-1368DR,4681,5021,11428,01.249,551
2022-06-30T21:55:23,42.805,6.029,CST-1368DR,4681,5017,11421,01.251,551
2022-06-30T21:58:24,42.805,6.029,CST-1368DR,4681,5019,11424,01.250,551
2022-06-30T22:01:26,42.805,6.029,CST-1368DR,4681,5015,11416,01.253,551
2022-06-30T22:04:27,42.805,6.029,CST-1368DR,4681,5021,11429,01.249,551
2022-06-30T22:07:29,42.805,6.029,CST-1368DR,4681,5019,11425,01.250,551
2022-06-30T22:10:31,42.805,6.029,CST-1368DR,4681,5020,11427,01.249,551
2022-06-30T22:13:32,42.805,6.029,CST-1368DR,4681,5020,11426,01.250,551
2022-06-30T22:16:34,42.805,6.029,CST-1368DR,4681,5019,11425,01.250,551
2022-06-30T22:19:35,42.805,6.029,CST-1368DR,4681,5024,11436,01.246,551
2022-06-30T22:22:37,42.805,6.029,CST-1368DR,4681,5020,11427,01.249,551
2022-06-30T22:25:39,42.805,6.029,CST-1368DR,4681,5018,11423,01.251,551
2022-06-30T22:28:40,42.805,6.029,CST-1368DR,4681,5022,11431,01.248,551
2022-06-30T22:31:42,42.805,6.029,CST-1368DR,4681,5022,11431,01.248,551
2022-06-30T22:34:43,42.805,6.029,CST-1368DR,4681,5022,11431,01.248,551
2022-06-30T22:37:45,42.805,6.029,CST-1368DR,4681,5024,11436,01.246,551
2022-06-30T22:40:46,42.805,6.029,CST-1368DR,4681,5024,11435,01.246,551
2022-06-30T22:43:48,42.805,6.029,CST-1368DR,4681,5019,11424,01.250,551
2022-06-30T22:46:50,42.805,6.029,CST-1368DR,4681,5020,11427,01.249,551
2022-06-30T22:49:51,42.805,6.029,CST-1368DR,4681,5022,11431,01.248,551
2022-06-30T22:52:53,42.805,6.029,CST-1368DR,4681,5019,11424,01.250,551
2022-06-30T22:55:54,42.805,6.029,CST-1368DR,4681,5021,11428,01.249,551
2022-06-30T22:58:56,42.805,6.029,CST-1368DR,4681,5020,11428,01.249,551
2022-06-30T23:01:57,42.805,6.029,CST-1368DR,4681,5021,11429,01.249,551
2022-06-30T23:04:59,42.805,6.029,CST-1368DR,4681,5018,11421,01.251,551
2022-06-30T23:08:01,42.805,6.029,CST-1368DR,4681,5019,11424,01.250,551
2022-06-30T23:11:02,42.805,6.029,CST-1368DR,4681,5018,11421,01.251,551
2022-06-30T23:14:04,42.805,6.029,CST-1368DR,4681,5019,11424,01.250,551
2022-06-30T23:17:05,42.805,6.029,CST-1368DR,4681,5018,11421,01.251,551
2022-06-30T23:20:07,42.805,6.029,CST-1368DR,4681,5021,11428,01.249,551
2022-06-30T23:23:09,42.805,6.029,CST-1368DR,4681,5013,11411,01.255,551
2022-06-30T23:26:10,42.805,6.029,CST-1368DR,4681,5012,11409,01.256,551
2022-06-30T23:29:12,42.805,6.029,CST-1368DR,4681,5016,11417,01.253,551
2022-06-30T23:32:13,42.805,6.029,CST-1368DR,4681,5014,11414,01.254,551
2022-06-30T23:35:15,42.805,6.029,CST-1368DR,4681,5012,11409,01.256,551
2022-06-30T23:38:16,42.805,6.029,CST-1368DR,4681,5023,11433,01.247,551
2022-06-30T23:41:18,42.805,6.029,CST-1368DR,4681,5016,11417,01.253,551
2022-06-30T23:44:20,42.805,6.029,CST-1368DR,4681,5016,11418,01.252,551
2022-06-30T23:47:21,42.805,6.029,CST-1368DR,4681,5017,11421,01.251,551
2022-06-30T23:50:23,42.805,6.029,CST-1368DR,4681,5013,11411,01.255,551
2022-06-30T23:53:24,42.805,6.029,CST-1368DR,4681,5016,11418,01.252,551
2022-06-30T23:56:26,42.805,6.029,CST-1368DR,4681,5014,11414,01.254,551
2022-06-30T23:59:28,42.805,6.029,CST-1368DR,4681,5016,11419,01.252,551
